Home > Weather > Ciudad del Este > Past weeks

Flag for Paraguay Weather for the Past 2 Weeks in Ciudad del Este, Paraguay

Now
81 °F

Clear.


Feels Like: 85 °F
Forecast: 75 / 92 °F
Wind: 6 mph from East

Location: Foz Do Iguacu Aeroporto

Current Time: Feb 8, 2016 at 11:40:02 PM

Latest Report: Feb 8, 2016 at 11:00 PM


Visibility: 10 mi

Pressure: 29.89 "Hg

Humidity: 79%

Dew point: 73 °F

Location of Ciudad del EsteLocation

Historic Weather in Ciudad del Este — Graph

°F

Ciudad del Este Temperature Yesterday

Maximum temperature yesterday: 93 °F (at 2:00 PM)
Minimum temperature yesterday: 72 °F (at 5:00 AM)
Average temperature yesterday: 82 °F

High & Low Weather Summary for the Past Weeks

 TemperatureHumidityPressure
High99 °F (Jan 25, 2:00 PM)100% (Jan 27, 2:00 AM)30.04 "Hg (Jan 27, 2:00 AM)
Low36 °F (Feb 3, 6:00 PM)37% (Jan 25, 3:00 PM)29.71 "Hg (Jan 24, 10:00 PM)
Average78 °F81%29.88 "Hg
* Reported Jan 24 10:00 PM — Feb 8 10:00 PM, Ciudad del Este, Weather by CustomWeather, © 2016

Note: Actual official high and low records may vary slightly from our data, if they occured in-between our weather recording intervals... More about our weather records

Advertising

Ciudad del Este Weather History for the Previous 24 Hours

 ConditionsComfort  
Time TempWeatherWind HumidityBarometerVisibility
10:00 PM
Mon, Feb 8
81 °FClear.5 mph79%29.89 "Hg10 mi
9:00 PM81 °FClear.7 mph74%29.86 "Hg10 mi
8:00 PM84 °FPassing clouds.5 mph66%29.83 "HgN/A
7:00 PM86 °FScattered showers. Scattered clouds.10 mph62%29.83 "HgN/A
6:00 PM90 °FPassing clouds.3 mph67%29.80 "HgN/A
5:00 PM91 °FScattered clouds.8 mph56%29.80 "HgN/A
4:00 PM91 °FScattered clouds.8 mph52%29.83 "HgN/A
3:00 PM95 °FScattered clouds.13 mph47%29.83 "HgN/A
2:00 PM95 °FScattered clouds.9 mph50%29.86 "HgN/A
1:00 PM91 °FScattered clouds.12 mph59%29.89 "HgN/A
12:00 PM90 °FScattered clouds.12 mph59%29.92 "HgN/A
11:00 AM88 °FPassing clouds.12 mph62%29.92 "HgN/A
10:00 AM86 °FScattered clouds.12 mph66%29.95 "HgN/A
9:00 AM84 °FScattered clouds.12 mph70%29.95 "HgN/A
8:00 AM81 °FPartly sunny.6 mph79%29.95 "HgN/A
7:00 AM75 °FSunny.7 mph89%29.92 "Hg10 mi
6:00 AM77 °FClear.10 mph83%29.89 "Hg10 mi
5:00 AM75 °FClear.10 mph89%29.86 "Hg10 mi
4:00 AM75 °FClear.9 mph89%29.86 "Hg10 mi
3:00 AM75 °FClear.12 mph89%29.86 "Hg10 mi
2:00 AM75 °FClear.3 mph89%29.86 "Hg10 mi
1:00 AM77 °FClear.9 mph89%29.89 "Hg10 mi
12:00 AM77 °FPassing clouds.10 mph89%29.89 "HgN/A
11:00 PM
Sun, Feb 7
77 °FClear.9 mph89%29.89 "Hg10 mi
Weather by CustomWeather, © 2016

See weather overviewHow to use our weather pages